Dewpoint
43 40 39 38 38 37 37 36 34 33 32 32 31 30 29 27 27 26 26 25 25 25 26 26 26 27 27 28 28 28 28 29 27 28 28 28 28 28 28 29 30 29 29
35 34 33 33 33 33 32 32 31 31 31 30 29 28 27 26 25 25 26 26 26 26 26 27 27 28 28 30 30 30 29 29 28 27 28 28 28 28 28 28 29 30 30
32 31 30 30 29 29 29 29 28 28 27 27 27 26 25 26 26 26 26 26 27 27 27 27 28 29 30 31 31 30 30 30 29 28 28 28 29 31 32 33 34 34 35
29 28 27 26 26 25 25 24 24 24 24 25 25 25 26 27 27 27 27 27 28 28 29 29 29 30 31 32 31 31 31 30 30 30 30 32 34 34 34 34 34 35 35
27 27 26 27 27 27 27 27 27 27 27 27 27 27 27 28 28 28 28 29 30 30 30 30 31 33 35 33 32 31 31 32 32 33 34 34 34 34 35 35 35 34 36
27 27 28 28 28 28 28 28 29 29 29 30 29 29 29 30 35 35 35 34 33 33 32 33 32 33 31 30 30 30 31 31 33 35 36 36 33 33 36 37 35 33 32
27 28 28 28 28 29 29 29 30 30 30 30 30 31 30 30 34 34 34 34 33 31 29 28 28 29 31 30 31 32 32 34 34 35 35 36 36 36 36 35 35 35 33
26 27 28 28 29 30 30 30 30 31 31 31 31 31 30 30 35 34 33 31 29 30 30 30 30 31 31 33 34 34 34 35 35 36 36 35 35 36 36 36 35 36 37
27 28 28 29 29 30 30 30 31 31 31 30 31 31 29 28 33 34 33 32 31 30 30 32 33 34 35 34 33 34 36 36 37 36 34 37 38 39 40 39 37 37 34
29 29 29 30 30 30 30 30 30 31 31 31 29 26 29 28 30 30 30 31 31 31 32 32 33 33 34 33 33 34 33 32 37 38 37 38 38 38 38 37 35 34 33
30 30 30 30 30 30 29 29 29 29 28 24 25 27 28 28 30 30 30 30 31 30 29 31 33 33 32 31 31 32 35 39 38 38 36 36 36 35 35 35 36 36 33
30 30 29 29 28 28 27 26 26 24 23 24 27 28 28 28 30 31 30 30 30 30 30 32 33 33 33 35 38 39 36 33 33 31 31 31 31 32 32 32 32 33 34
28 28 29 29 26 25 24 23 23 25 27 29 29 28 27 28 29 31 30 30 31 31 33 32 31 32 32 37 32 31 30 31 30 29 29 30 30 30 31 31 32 32 33
28 28 28 26 25 24 25 26 26 27 28 28 28 28 28 30 30 30 30 30 33 34 34 33 34 34 36 31 28 29 31 32 32 31 31 33 33 32 31 31 30 31 30
28 29 28 24 23 23 24 25 29 29 29 28 28 28 28 27 27 27 28 31 30 31 31 34 34 30 28 28 28 30 31 32 32 32 32 31 31 31 30 30 30 30 30
28 27 27 23 23 24 24 25 28 28 28 27 26 26 26 26 26 27 29 29 30 31 30 27 26 26 27 27 28 27 27 28 30 32 32 31 30 30 29 29 30 31 30
29 27 24 24 23 23 25 26 25 26 26 24 24 25 25 25 26 28 30 31 32 28 26 26 26 27 26 26 28 28 28 29 29 31 31 31 31 30 29 27 29 30 31
25 27 24 23 23 25 26 26 25 24 23 22 24 25 26 27 27 28 28 27 25 26 26 26 27 27 28 28 29 29 28 29 30 30 31 31 31 29 29 28 27 28 29
24 25 24 22 25 28 26 24 23 23 23 23 23 24 26 27 30 29 27 26 26 26 27 28 29 29 29 30 30 30 30 30 30 30 30 30 31 30 29 29 29 29 30
22 26 25 25 26 25 24 23 23 23 24 24 24 25 26 30 28 26 26 27 27 28 28 28 29 29 30 30 30 30 30 30 30 30 30 30 31 30 29 29 30 30 29
21 23 27 27 25 24 24 23 23 24 24 24 25 25 27 28 26 27 28 28 29 29 29 29 29 30 30 30 31 30 30 30 31 31 31 31 31 29 29 30 30 31 31
22 24 26 25 25 24 25 24 24 24 24 25 24 25 27 27 28 28 28 29 30 31 31 31 30 31 31 31 31 31 30 30 31 31 31 31 31 30 29 30 30 31 30
22 25 24 23 24 25 23 24 23 24 25 25 26 26 27 27 28 28 29 30 31 31 32 32 32 32 32 33 33 32 31 31 32 32 31 31 31 30 30 30 30 30 29
23 24 23 23 24 25 24 25 25 25 25 25 25 26 27 28 29 30 31 31 32 32 33 33 33 33 33 33 33 32 32 33 33 33 32 31 31 31 31 30 30 30 30
24 24 23 24 24 24 24 25 24 24 24 25 25 26 28 29 29 30 31 32 32 32 33 33 34 34 35 34 34 33 33 33 33 33 33 32 31 31 30 30 30 29 30
23 24 24 24 25 24 24 23 24 23 25 25 26 27 29 29 30 31 32 32 32 33 33 34 34 35 35 35 35 35 34 33 32 32 33 32 31 30 31 31 31 31 31
Wind_Speed
14 13 14 13 13 13 12 13 14 14 16 15 14 13 12 11 9 9 8 7 6 4 2 1 2 2 4 4 3 4 6 6 13 6 8 9 10 15 15 15 15 15 16
17 18 18 18 17 19 18 15 15 14 12 12 11 10 9 8 7 8 8 7 5 4 4 5 7 4 4 4 5 8 9 10 12 19 9 10 13 14 13 13 14 10 14
19 21 19 19 20 18 17 14 13 12 10 9 8 7 6 6 7 6 5 5 6 7 7 7 8 6 7 8 9 12 13 13 13 12 12 7 7 8 8 8 12 14 13
19 20 20 18 18 16 13 12 11 9 9 7 5 3 2 3 4 5 6 6 7 8 9 10 11 11 10 10 13 15 14 15 15 14 14 12 10 11 9 12 14 9 15
20 20 17 15 14 14 13 12 10 10 8 6 4 3 2 3 5 6 7 8 8 10 10 12 13 13 13 14 13 14 16 16 15 14 14 14 15 12 12 10 12 14 15
18 16 14 14 13 12 10 9 8 7 6 5 4 3 2 2 5 6 7 7 8 9 11 11 10 12 13 13 18 22 23 18 16 16 14 13 15 16 15 14 13 14 13
15 12 11 11 11 8 8 8 6 5 4 3 3 3 4 5 8 12 14 10 8 7 8 9 10 10 14 14 19 20 21 22 22 18 15 14 15 15 13 16 16 14 17
12 10 9 9 9 7 6 5 3 2 1 2 4 4 4 7 10 12 14 3 4 7 9 10 11 15 15 14 16 18 18 17 17 14 15 18 17 18 17 18 19 16 15
9 8 7 7 6 4 4 2 1 2 3 3 4 4 4 5 8 11 13 11 12 14 12 10 13 16 17 21 20 18 17 17 18 21 22 22 23 23 18 10 11 9 10
7 5 4 3 3 2 1 1 2 2 4 4 4 2 1 6 9 14 16 13 16 15 12 14 16 16 21 21 20 16 18 17 12 14 13 13 13 12 14 13 11 13 12
5 5 5 5 4 4 3 3 4 4 4 4 5 5 7 9 12 17 17 13 13 10 12 11 13 19 21 23 23 19 18 16 17 14 15 11 11 13 14 12 11 12 13
7 8 7 7 7 6 5 5 4 4 6 7 7 10 10 12 16 14 17 18 17 14 14 12 14 21 23 24 20 17 21 20 5 7 9 11 12 11 12 12 12 12 12
10 9 8 7 8 7 6 5 4 6 5 8 10 14 15 12 13 15 18 18 18 17 13 17 24 23 22 11 17 19 20 8 9 10 10 12 11 12 11 9 11 12 13
8 7 7 7 8 8 6 5 6 6 9 11 13 14 14 12 11 12 14 14 16 15 18 18 19 21 13 16 15 12 10 10 12 13 12 9 8 9 12 10 11 12 11
6 5 5 6 7 8 7 4 6 6 8 14 14 13 13 14 13 20 18 14 14 15 20 12 6 10 13 13 13 12 11 11 12 11 11 11 10 10 12 10 11 12 12
4 4 4 6 7 7 8 9 7 11 14 16 18 17 15 19 21 20 20 20 21 21 14 11 13 13 13 13 12 12 12 13 12 11 12 12 12 10 11 10 10 12 13
3 2 4 5 6 8 8 8 13 12 13 15 16 16 18 20 20 20 21 22 18 17 12 13 13 12 13 14 15 13 13 12 12 13 13 12 12 9 11 10 10 11 12
4 4 3 4 6 7 7 8 11 13 16 15 15 17 18 19 20 21 21 19 15 13 11 13 14 14 15 15 15 15 15 13 13 13 14 12 12 10 10 11 10 11 13
3 3 2 4 5 6 8 10 11 12 13 14 15 15 16 20 21 19 19 11 13 14 14 15 15 16 16 16 16 17 16 15 14 14 14 11 14 9 10 11 12 16 15
2 4 3 3 5 8 9 10 13 13 13 13 14 13 16 16 13 16 15 14 14 15 16 17 17 17 18 18 18 17 16 16 15 14 13 12 11 10 11 13 12 12 12
2 2 3 4 6 7 8 11 13 13 13 14 14 15 21 16 16 16 16 16 16 17 17 18 18 18 18 18 18 17 17 16 14 14 13 12 12 12 11 12 12 12 12
3 2 3 5 5 7 9 11 13 13 13 13 16 16 22 16 16 17 17 17 17 17 17 17 18 19 18 18 17 17 16 15 13 13 13 11 11 10 11 12 12 11 12
3 3 3 4 4 7 11 10 11 13 14 15 16 17 18 17 18 18 18 18 18 18 17 16 17 18 17 15 14 13 14 12 10 10 11 10 10 10 11 12 12 12 13
4 4 2 3 6 8 10 10 12 15 16 16 17 18 18 18 19 19 18 18 17 17 16 16 16 17 17 14 11 9 9 9 8 8 10 10 10 12 11 11 12 14 15
4 3 1 3 6 8 11 10 12 13 15 15 17 18 18 19 19 19 17 17 16 16 17 16 15 16 14 14 12 10 9 8 8 9 8 10 11 13 13 13 15 17 19
3 1 2 3 5 8 10 11 13 14 14 15 17 18 17 19 19 18 17 16 16 16 17 15 16 18 16 12 11 11 9 8 6 8 9 10 12 14 15 17 19 19 21
Wind_Direction
108 112 109 109 108 107 118 123 125 125 124 120 122 123 126 126 126 123 123 131 132 139 140 182 257 237 272 287 284 268 261 231 270 282 253 269 276 280 282 284 279 275 276
95 96 93 92 96 104 105 105 110 110 108 120 120 128 133 137 140 147 155 163 176 213 227 221 247 232 247 253 268 281 278 273 263 282 274 267 263 270 268 279 282 276 269
96 98 95 97 96 96 98 96 97 104 106 113 125 132 141 159 167 172 181 202 222 232 239 242 249 229 267 280 280 283 282 280 268 261 275 262 267 275 283 272 282 280 274
93 94 95 95 97 96 95 94 94 93 93 89 90 109 138 166 187 210 228 241 247 252 248 230 234 234 244 263 270 273 276 276 273 269 275 268 267 289 265 280 286 268 275
100 98 98 98 96 92 85 81 80 76 73 69 67 46 6 293 269 258 247 243 249 255 251 249 249 245 242 262 283 283 274 268 270 273 273 279 272 268 260 269 264 292 284
101 100 102 97 92 88 92 90 82 76 69 68 59 59 28 325 311 298 288 265 262 257 263 264 253 261 270 279 284 287 287 278 273 268 265 259 274 270 266 255 257 282 289
105 103 101 101 97 94 96 94 88 74 58 44 21 347 318 308 309 302 300 300 284 269 265 269 275 263 280 276 281 286 287 284 281 276 264 259 275 273 261 259 253 253 265
103 105 106 108 110 107 102 97 98 84 4 314 312 323 315 310 316 308 303 293 270 270 267 266 268 283 281 278 274 275 269 263 265 270 268 268 258 254 239 245 249 254 263
100 102 108 116 121 120 114 109 53 326 321 318 313 311 311 316 337 325 321 311 296 286 282 268 277 280 285 290 281 275 277 273 266 278 280 275 276 276 284 249 242 262 275
102 97 99 109 121 124 116 346 343 330 309 319 319 322 288 318 319 319 312 296 289 286 277 273 277 282 288 292 292 288 285 282 278 272 270 276 280 278 277 279 279 271 268
71 65 55 50 69 56 37 4 344 342 342 347 325 315 312 311 310 312 310 300 286 284 289 280 274 282 287 290 287 281 282 272 257 272 268 244 261 262 261 262 259 251 261
72 72 67 61 50 33 17 355 353 0 340 332 324 314 307 302 308 308 306 307 300 292 293 282 277 284 286 288 304 316 309 304 330 289 277 264 260 263 270 274 272 265 253
78 70 63 51 32 16 0 359 353 342 334 322 315 310 306 304 296 300 307 308 305 304 295 288 297 302 304 315 303 297 303 312 292 275 265 259 254 268 271 277 275 271 266
82 63 41 33 23 10 359 1 351 335 321 312 311 304 300 298 296 293 289 289 291 294 291 286 286 288 297 302 302 296 283 277 271 266 260 257 262 274 271 267 273 277 271
81 51 44 34 9 353 349 318 337 323 305 311 309 299 309 310 301 302 311 307 304 298 302 305 301 302 288 284 287 284 279 278 276 279 274 268 265 266 268 265 266 262 251
62 41 32 10 360 350 341 330 326 328 327 320 317 315 317 310 310 316 316 312 308 312 318 313 302 291 286 288 284 291 287 282 282 271 273 264 262 261 267 268 257 257 256
80 50 359 356 343 341 342 335 325 323 327 328 326 325 319 316 318 318 314 314 322 325 313 302 296 297 293 290 274 267 276 279 278 273 272 265 258 253 273 273 260 262 247
60 29 9 339 338 347 351 343 335 330 328 326 324 328 325 324 322 320 326 333 326 319 298 287 283 280 279 280 282 270 269 269 268 265 268 265 248 250 256 255 261 257 256
52 7 358 345 10 21 356 348 340 329 320 313 315 322 326 320 319 326 328 316 300 298 293 288 283 281 280 274 273 270 262 263 259 256 259 253 257 231 261 264 255 263 257
44 10 39 28 31 2 354 347 338 329 322 318 317 319 315 317 331 324 318 310 301 297 297 293 292 287 282 278 276 273 268 264 258 253 257 258 245 249 246 258 249 251 255
88 36 53 55 13 359 347 344 338 332 325 327 327 325 334 338 319 313 309 306 301 298 296 292 290 286 281 277 272 266 261 260 253 252 251 253 239 245 250 254 257 250 252
114 90 79 19 9 357 345 338 335 331 320 320 330 326 331 328 318 315 312 308 303 298 295 293 291 289 286 282 278 273 266 257 251 252 246 251 238 241 251 255 257 249 253
132 134 55 20 2 347 339 331 341 327 326 327 327 325 325 323 320 317 313 311 310 309 307 304 302 300 299 294 285 273 270 264 253 247 247 248 237 240 253 255 257 254 255
150 144 58 11 352 351 345 329 327 337 339 336 336 331 327 325 321 320 320 320 320 319 318 314 311 310 315 326 319 309 286 269 263 254 249 253 258 259 255 260 258 259 261
160 158 37 355 346 342 343 340 343 343 341 336 335 333 331 330 327 327 326 327 330 325 323 322 320 325 332 332 335 341 337 315 285 272 263 263 260 262 263 262 262 261 258
164 157 344 340 345 342 339 346 343 343 333 331 331 331 333 329 327 328 330 331 332 325 327 327 325 328 329 330 327 327 326 313 287 267 254 253 260 260 256 258 261 260 262